Location: Burbank
(38.7788°N, 114.0429°W)
Time: 10:45:25
(UTC+00:00)

Vanguard 2 - Pass Details

Date: 13 May 2026
Orbit: 553 x 2894 km, 32.9° (Epoch: 11 June)

Event Time Altitude Azimuth Distance (km) Brightness Sun altitude
Rises 12:00:35 0° 259° (W) 6,728 - -5.2°
Exits shadow 12:01:44 - 259° (W) 6,468 11.6 -5.0°
Reaches altitude 10° 12:05:09 10° 258° (WSW) 5,691 11.3 -4.4°
Maximum altitude 12:22:11 69° 180° (S) 2,531 10.1 -1.4°
Drops below altitude 10° 12:33:56 10° 100° (E) 4,093 12.3 0.6°
Sets 12:36:39 0° 98° (E) 4,814 12.8 1.1°
